Algonquin Island, Ontario

6:45 PM EDT on July 27, 2017 (GMT -0400)
Rapids Queen at QCYC | | Change Station

Elev 252 ft 43.63 °N, 79.36 °W | Updated 4 minutes ago

Partly Cloudy
Partly Cloudy
74.1 °F
Feels Like 77 °F
N
6.0
Wind Variable Wind from West

Today
High -- | Low -- °F
--% Chance of Precip.
Yesterday
High -- | Low -- °F
Precip. -- in
Pressure 29.86 in
Visibility 9.0 miles
Clouds Few 6000 ft
Heat Index 77 °F
Dew Point 40 °F
Humidity 29%
Rainfall 0.17 in
Snow Depth Not available.
6:01 AM 8:45 PM
Waxing Crescent, 24% visible
METAR CYTZ 272200Z AUTO 19004KT 9SM FEW060 24/20 A2986 RMK SLP112 DENSITY ALT 1400FT
Pressure 29.86 in
Visibility 9.0 miles
Clouds Few 6000 ft
Heat Index 77 °F
Dew Point 40 °F
Humidity 29%
Rainfall 0.17 in
Snow Depth Not available.
6:01 AM 8:45 PM
Waxing Crescent, 24% visible
METAR CYTZ 272200Z AUTO 19004KT 9SM FEW060 24/20 A2986 RMK SLP112 DENSITY ALT 1400FT

Get Severe Weather Alerts

Thanks for signing up!

Be on the lookout for a verification email in your inbox.

You'll start receiving the daily forecast at 6 AM.

×

10-Day Weather Forecast

Almanac

Astronomy

Jul. 27, 2017 Rise Set
Actual Time
Civil Twilight
Nautical Twilight
Astronomical Twilight
Moon
Length of Visible Light
Length of Day
Tomorrow will be .
, % of the Moon is Illuminated

Today's Extremes

Country Highs Country Lows

Community

WunderPhotos

Category 6

Welcome to Category 6. This is the collective home for Weather Underground's featured writeups by Dr. Jeff Masters (right), Bob Henson (left), Chris Burt, and other regular contributors.

Nearby

Air Quality

  Air Quality AQ Index Pollutant
Not available.

Snow Depth

Station Depth Elevation

Earthquake Activity

City Distance Mag. Time & Date
Minimum magnitude displayed is 2.5.

Coastal Water Temperatures

Place Temperature

Stations

Nearby Weather Stations

Station Location Temp. Windchill Dew Point Humidity Wind Precip. Elev Updated Type
                   

Watches & Warnings

There are currently no watches in effect.